Location: Boca de Tacagua
(10.5333°N, 66.9833°W)
Time: 01:14:21
(UTC+00:00)

Cosmos 1666 Rocket - Pass Details

Date: 07 July 2022
Orbit: 602 x 633 km, 82.5° (Epoch: 17 August)

Event Time Altitude Azimuth Distance (km) Brightness Sun altitude
Exits shadow 08:19:19 15° 330° (NNW) 1,697 5.8 -25.4°
Drops below altitude 10° 08:20:13 10° 337° (NNW) 1,999 6.2 -25.2°
Sets 08:22:41 0° 348° (NNW) 2,909 7.2 -24.7°
